Location: Alpha Ridge Park
(39.3209°N, 76.9128°W)
Time: 22:29:48
(UTC-04:00)

Transit 2A - Pass Details

Date: 26 May 2019
Orbit: 593 x 966 km, 66.7° (Epoch: 15 June)

Event Time Altitude Azimuth Distance (km) Brightness Sun altitude
Rises 09:54:00 0° 270° (W) 3,620 9.1 45.6°
Reaches altitude 10° 09:58:11 10° 296° (WNW) 2,703 8.5 46.4°
Maximum altitude 10:01:05 13° 323° (NW) 2,475 8.5 46.9°
Drops below altitude 10° 10:04:00 10° 351° (N) 2,704 8.8 47.5°
Sets 10:08:13 0° 17° (NNE) 3,622 9.5 48.3°
